Location: Calvatone
(45.1167°N, 10.4333°E)
Time: 11:09:23
(UTC+00:00)

BlueWalker 3 - Pass Details

Date: 28 January 2023
Orbit: 497 x 514 km, 53.2° (Epoch: 28 March)

Event Time Altitude Azimuth Distance (km) Brightness Sun altitude
Rises 18:44:54 0° 268° (W) 2,599 6.9 -25.6°
Reaches altitude 10° 18:47:15 10° 279° (W) 1,720 5.6 -26.0°
Enters shadow 18:50:03 29° 321° (NW) 948 3.6 -26.5°
